Regional Weather Roundup
Issued by NWS Little Rock, AR

Home | Current Version | Previous Version | Graphics & Text | Print | Product List | Glossary On
Versions: 1 2 3 4 5 6 7 8 9 10 11 12 13 14 15 16 17 18 19 20 21 22 23 24 25 26 27 28 29 30 31 32 33 34 35 36 37 38 39 40 41 42 43 44 45 46 47 48 49 50
000
ASUS44 KLZK 180405
RWRLZK

WEATHER ROUNDUP FOR ARKANSAS
NATIONAL WEATHER SERVICE LITTLE ROCK AR
1000 PM CST WED JAN 17 2018

NOTE: "FAIR" INDICATES FEW OR NO CLOUDS BELOW 12,000 FEET WITH NO
SIGNIFICANT WEATHER AND/OR OBSTRUCTIONS TO VISIBILITY.

ARZ001-003-010-029-180500-
NORTHWEST ARKANSAS

CITY           SKY/WX    TMP DP  RH WIND       PRES   REMARKS
FAYETTEVILLE   CLOUDY    13   7  77 CALM      30.54S
FORT SMITH     CLOUDY    20  10  65 CALM      30.60F
HARRISON       CLOUDY    19   9  65 CALM      30.51F
BENTONVILLE    CLOUDY    18   7  62 SW3       30.54F
ROGERS         CLOUDY    18   7  62 SW6       30.52F WCI  10
SILOAM SPGS    CLOUDY    19   7  59 S5        30.54F WCI  12
HIGHFILL       CLOUDY    20   7  57 SW5       30.52F WCI  13
$$

ARZ004-005-016-180500-
NORTH CENTRAL ARKANSAS

CITY           SKY/WX    TMP DP  RH WIND       PRES   REMARKS
BATESVILLE     FAIR      18  11  74 S5        30.60F WCI  11
FLIPPIN        CLOUDY    12   6  77 CALM      30.57S
MTN HOME       CLEAR     18   9  68 S3        30.53F
$$

ARZ040-041-180500-
WEST CENTRAL ARKANSAS

CITY           SKY/WX    TMP DP  RH WIND       PRES   REMARKS
MENA           CLOUDY    28   9  43 CALM      30.56
MOUNT IDA      CLEAR     19   9  65 CALM      30.56S
$$

ARZ009-017-025-026-028-180500-
NORTHEAST ARKANSAS

CITY           SKY/WX    TMP DP  RH WIND       PRES   REMARKS
JONESBORO      FAIR      17  13  84 SW5       30.61F WCI  10
NEWPORT        FAIR      18  13  80 SW6       30.62F WCI  10
WALNUT RIDGE   FAIR      18  14  84 S7        30.61S WCI   9
BLYTHEVILLE    FAIR       8   8 100 S5        30.63S WCI   0
$$

ARZ022-023-033-042-044-180500-
CENTRAL ARKANSAS

CITY           SKY/WX    TMP DP  RH WIND       PRES   REMARKS
LITTLE ROCK    FAIR      17  11  77 CALM      30.65S
N LITTLE ROCK    N/A     17  11  80 CALM      30.61S
JACKSONVILLE   FAIR      13  10  84 CALM      30.62S
SEARCY         FAIR      13  12  96 SW3       30.64S
HOT SPRINGS    FAIR      20  12  71 CALM      30.62R
RUSSELLVILLE   CLOUDY    15  10  80 CALM      30.60S
CLINTON        FAIR      14  10  85 CALM      30.60F
$$

ARZ036-180500-
EAST ARKANSAS

CITY           SKY/WX    TMP DP  RH WIND       PRES   REMARKS
WEST MEMPHIS   FAIR      10  10 100 CALM      30.62F
$$

ARZ050-053-066-070-073-180500-
SOUTHWEST ARKANSAS

CITY           SKY/WX    TMP DP  RH WIND       PRES   REMARKS
ARKADELPHIA    FAIR      14   6  70 CALM      30.66S
CAMDEN         FAIR      14  10  85 CALM      30.65F
TEXARKANA      FAIR      17  11  77 SW3       30.64R
EL DORADO      FAIR      17  15  92 CALM      30.64S
DE QUEEN       CLOUDY    17  12  80 CALM      30.62S
$$

ARZ056-057-069-180500-
SOUTHEAST ARKANSAS

CITY           SKY/WX    TMP DP  RH WIND       PRES   REMARKS
PINE BLUFF     FAIR      13   9  84 CALM      30.65F
STUTTGART      FAIR      14  11  87 S6        30.65S WCI   5
MONTICELLO     FAIR      15  10  80 CALM      30.65S

$$





USA.gov is the U.S. government's official web portal to all federal, state and local government web resources and services.